Showing default

SECOR 3, 1208

Orbit data source: Space-Track

SECOR 3, 1208 is an American payload satellite in LEO that was launched on Tue, 09 Mar 1965 UTC via a THOR SLV-2 AGENA D launch vehicle from the Air Force Western Test Range (AFWTR). Payload-class satellites include a variety of spacecraft equipped with specific instruments for various scientific and technological missions. These include communications satellites like Starlink; space stations such as the ISS; scientific satellites like the Hubble; Earth observation satellites from companies like Planet Labs, Umbra, and HawkEye 360; GPS; miniature CubeSats for education and research; and military/defense satellites.

Loading next visibility...
Identifier
1208, 1965-016E
Orbit
LEO
Country
Flag of USUS
Related business
Manufacturer
ITT
Mission
Spacecraft
Bus & Motor
SECOR, Unknown motor
Mass
18 kg wet, 18 kg dry
Launch date (UTC)
1965-03-09 (61 years ago)
Launch vehicle
THOR SLV-2 AGENA D
Launch site
Air Force Western Test Range (AFWTR)
Object type
Payload
Rocket body
Debris
Shape & HBR
Unknown
Radar Cross Section
Medium (>0.1 m² and <1 m²)

Expand to show TLE details & history
Last TLE update: 19 hours ago

TLE from 19 hours ago
0 SECOR 3
1  1208U 65016E   25312.71280542  .00000098  00000-0  10975-3 0  9993
2  1208  70.0786 293.6771 0019629   6.9851 178.2258 13.96032723 88399
Epoch: 2025-11-08T17:06Z
TLE epoch observation values (Epoch: 2025-11-08T17:06:26.388Z)
Latitude
-5.03809°
Longitude
170.75002°
Altitude
924.973 km
Speed
7.382 km/s
True Right ascension
07h 41m 59s
True Declination
-5° 00' 32"
Sunlit
Object was in daylight at epoch
Visualization orbit readout
Latitude
Unknown
Longitude
Unknown
Altitude
Unknown
Speed
Unknown
Apparent Right ascension
Unknown
Apparent Declination
Unknown
Sunlit
N/A
Visualization observer readout
Local Sidereal Time
08:38:39
Azimuth
Unknown
Elevation
Unknown
Doppler factor
Unknown
Orbital elements
Apogee altitude
919.898 km
Perigee altitude
891.303 km
Semi-major axis
7,283.738 km
Eccentricity
0.00196
Inclination
70.0786°
RAAN
293.6771°
Arg. of periapsis
6.9851°
True anomaly
178.23275°
Mean anomaly
178.2258°
Eccentric anomaly
178.22928°
Mean motion
3.4915 °/min
Orbital period
103.11 mins
BSTAR
0.00010975
Loading maneuver chart data...
Computing Atmospheric mass density...
Loading historical data...
Loading historical data...
Loading historical data...
Loading historical data...
Loading historical data...
Loading historical data...
Loading historical data...

Documentation

Showing up to 5 results
|